#timestamp,LO_Frequency,Hit,StdDev 
1513987215.1,286046989.6,N
1513987235.9,286046990.5,N
1513987255.7,286046989.3,N
1513987275.5,286046987.7,N
1513987295.4,286046983.8,N
1513987315.2,286046982.2,N
1513987335.0,286046985.9,N
1513987335.9,286046985.9,N
1513987355.7,286046986.7,N
1513987375.6,286046983.9,N
1513987395.4,286046988.2,N
1513987415.2,286046989.4,N
1513987435.1,286046988.7,N
1513987436.0,286046988.7,N
1513987455.8,286046989.7,N
1513987475.6,286046988.9,N
1513987495.5,286046994.1,N
1513987515.3,286046996.6,N
1513987535.1,286046997.6,N
1513987555.9,286046992.4,N
1513987575.7,286046992.8,N
1513987595.5,286046990.4,N
1513987615.3,286046992.2,N
1513987635.2,286046990.8,N
1513987655.0,286046990.1,N
1513987655.9,286046990.1,N
1513987675.7,286046993.1,N
1513987695.6,286046994.6,N
1513987715.4,286046993.0,N
1513987735.2,286046993.2,N
1513987755.1,286046992.0,N
1513987756.0,286046992.0,N
1513987775.8,286046992.2,N
1513987795.6,286046990.3,N
1513987815.5,286046992.4,N
1513987835.3,286046990.1,N
1513987855.1,286046994.1,N
1513987875.9,286046991.6,N
1513987895.7,286046990.1,Y
1513987915.5,286046998.0,P
1513987935.4,286046994.5,N
1513987955.2,286046993.7,N
1513987975.0,286046997.7,N
1513987975.9,286046997.7,N
1513987995.8,286046998.8,N
1513988015.6,286046998.7,N
1513988035.4,286046999.4,N
1513988055.2,286046997.9,N
1513988075.1,286046996.8,N
1513988076.0,286046996.8,N
1513988095.8,286046996.3,N
1513988115.6,286046996.3,N
1513988135.5,286046992.0,Y
1513988155.3,286046997.8,P
1513988175.1,286046998.1,P
1513988195.9,286047000.9,N
1513988215.7,286046999.1,N
1513988235.5,286046996.7,N
1513988255.4,286046995.7,N
1513988275.2,286046999.3,N
1513988295.0,286046999.4,N
1513988295.9,286046999.4,N
1513988315.8,286047005.6,Y
1513988335.6,286047012.2,P
1513988355.4,286047011.0,N
1513988375.3,286047009.6,N
1513988395.1,286047009.4,N
1513988396.0,286047009.4,N
1513988415.8,286047009.6,N
1513988435.7,286047009.7,N
1513988455.5,286047008.9,N
1513988475.3,286047010.3,N
1513988495.1,286047008.7,N
1513988515.9,286047000.3,N
1513988535.7,286046997.0,N
1513988555.5,286046996.6,N
1513988575.4,286046994.9,N
1513988595.2,286046996.5,N
1513988615.0,286046995.3,N
1513988615.9,286046995.3,N
1513988635.8,286046990.4,N
1513988655.6,286046992.6,N
1513988675.4,286046992.0,N
1513988695.3,286046990.4,N
1513988715.1,286046989.7,N
1513988716.0,286046989.7,N
1513988735.8,286046992.1,N
1513988755.6,286046993.8,N
1513988775.5,286046990.4,N
1513988795.3,286046992.6,N
1513988815.1,286046993.2,N
1513988835.9,286046994.2,N
1513988855.7,286046993.7,N
1513988875.5,286046993.7,N
1513988895.4,286046993.5,N
1513988915.2,286046992.0,N
1513988935.0,286046992.0,N
1513988935.9,286046992.0,N
1513988955.8,286046993.4,N
1513988975.6,286046993.8,N
1513988995.4,286046995.1,N
1513989015.3,286046996.4,N
1513989035.1,286046997.5,N
1513989036.0,286046997.5,N
1513989055.8,286046999.9,N
1513989075.7,286047004.1,N
1513989095.5,286047001.6,N
1513989115.3,286047002.5,N
1513989135.1,286047005.3,N
1513989155.9,286047010.6,N
1513989175.7,286047011.7,N
1513989195.5,286047008.2,N
1513989215.4,286047008.9,N
1513989235.2,286047010.7,N
1513989255.0,286047011.1,N
1513989255.9,286047011.1,N
1513989275.8,286047012.9,N
1513989295.6,286047016.0,N
1513989315.4,286047016.5,N
1513989335.3,286047021.4,N
1513989355.1,286047023.6,N
1513989356.0,286047023.6,N
1513989375.8,286047017.4,N
1513989395.7,286047020.0,N
1513989415.5,286047021.4,N
1513989435.3,286047023.2,N
1513989455.2,286047022.1,N
1513989475.9,286047027.0,N
1513989495.7,286047026.3,N
1513989515.5,286047024.0,N
1513989535.4,286047026.5,N
1513989555.2,286047025.5,N
1513989575.0,286047024.8,N
1513989575.9,286047024.8,N
1513989595.8,286047019.7,N
1513989615.6,286047019.3,N
1513989635.4,286047019.7,N
1513989655.3,286047018.3,N
1513989675.1,286047017.2,N
1513989695.8,286047015.3,N
1513989715.7,286047010.9,N
1513989735.5,286047008.8,N
1513989755.3,286047005.6,N
1513989775.2,286047005.7,N
1513989795.9,286047002.1,N
1513989815.7,286047000.3,N
1513989835.6,286046996.6,N
1513989855.4,286046997.8,N
1513989875.2,286046997.6,N
1513989895.0,286046996.1,N
1513989895.9,286046996.1,N
1513989915.8,286046994.7,N
1513989935.6,286046992.6,N
1513989955.4,286046993.7,N
1513989975.3,286046995.4,N
1513989995.1,286046993.9,N
1513990015.8,286046990.1,N
1513990035.7,286046992.7,N
1513990055.5,286046990.2,N
1513990075.3,286046989.1,N
1513990095.2,286046990.8,N
1513990115.9,286046990.1,N
1513990135.7,286046993.8,N
1513990155.6,286046995.5,N
1513990175.4,286046995.9,N
1513990195.2,286046998.4,N
1513990215.1,286046998.5,N
1513990216.0,286046998.5,N
1513990235.8,286047000.7,N
1513990255.6,286047002.1,N
1513990275.4,286047001.5,N
1513990295.3,286047004.2,N
1513990315.1,286047005.2,N
1513990335.8,286047009.0,N
1513990355.7,286047009.2,N
1513990375.5,286047006.7,N
1513990395.3,286047007.9,N
1513990415.2,286047012.1,N
1513990435.9,286047010.1,N
1513990455.7,286047011.4,N
1513990475.6,286047013.5,N
1513990495.4,286047014.9,N
1513990515.2,286047014.4,N
1513990535.1,286047018.7,N
1513990536.0,286047018.7,N
1513990555.8,286047020.8,N
1513990575.6,286047023.2,N
1513990595.5,286047029.9,Y
1513990615.3,286047028.5,P
1513990635.1,286047035.6,N
1513990655.9,286047034.8,N
1513990675.7,286047031.0,N
1513990695.5,286047031.0,N
1513990715.3,286047028.2,N
1513990735.2,286047029.8,Y
1513990755.0,286047002.1,P
1513990755.9,286047002.1,N
1513990775.8,286047002.7,N
1513990795.6,286046998.4,N
